Time,TemperatureF,DewpointF,PressureIn,WindDirection,WindDirectionDegrees,WindSpeedMPH,WindSpeedGustMPH,Humidity,HourlyPrecipIn,Conditions,Clouds,dailyrainin,SoftwareType,DateUTC
2013-02-18 00:00:00,45.6,45.0,30.00,SW,232,0.0,3.0,97,0.00,,,0.00,,2013-02-18 08:00:00,
2013-02-18 00:10:00,45.7,45.0,30.00,SW,232,0.0,0.0,97,0.00,,,0.00,,2013-02-18 08:10:00,
2013-02-18 00:20:00,46.0,45.0,29.99,SW,232,1.0,1.0,97,0.00,,,0.00,,2013-02-18 08:20:00,
2013-02-18 00:30:00,46.1,45.0,29.99,SW,232,2.0,2.0,97,0.00,,,0.00,,2013-02-18 08:30:00,
2013-02-18 00:40:00,45.9,45.0,29.99,SW,232,0.0,2.0,97,0.00,,,0.00,,2013-02-18 08:40:00,
2013-02-18 00:50:00,45.7,45.0,29.99,SW,232,0.0,1.0,97,0.00,,,0.00,,2013-02-18 08:50:00,
2013-02-18 01:00:00,45.8,45.0,29.99,SW,232,2.0,3.0,97,0.00,,,0.00,,2013-02-18 09:00:00,
2013-02-18 01:10:00,45.8,45.0,29.99,SSW,195,0.0,3.0,97,0.00,,,0.00,,2013-02-18 09:10:00,
2013-02-18 01:20:00,45.7,45.0,29.99,SSW,195,0.0,1.0,97,0.00,,,0.00,,2013-02-18 09:20:00,
2013-02-18 01:30:00,45.7,45.0,29.99,South,173,2.0,3.0,97,0.00,,,0.00,,2013-02-18 09:30:00,
2013-02-18 01:40:00,45.7,45.0,29.99,South,169,1.0,3.0,97,0.00,,,0.00,,2013-02-18 09:40:00,
2013-02-18 01:50:00,45.7,45.0,29.99,SSE,154,3.0,3.0,97,0.00,,,0.00,,2013-02-18 09:50:00,
2013-02-18 02:00:00,45.7,45.0,29.98,East,96,3.0,7.0,97,0.00,,,0.00,,2013-02-18 10:00:00,
2013-02-18 02:10:00,45.6,45.0,29.98,East,89,6.0,7.0,97,0.00,,,0.00,,2013-02-18 10:10:00,
2013-02-18 02:20:00,45.8,45.0,29.98,East,90,0.0,5.0,97,0.00,,,0.00,,2013-02-18 10:20:00,
2013-02-18 02:30:00,45.8,45.0,29.98,East,90,0.0,0.0,97,0.00,,,0.00,,2013-02-18 10:30:00,
2013-02-18 02:40:00,45.7,45.0,29.98,East,90,0.0,3.0,97,0.00,,,0.00,,2013-02-18 10:40:00,
2013-02-18 02:50:00,45.7,45.0,29.98,East,90,1.0,5.0,96,0.00,,,0.00,,2013-02-18 10:50:00,
2013-02-18 03:00:00,45.7,45.0,29.98,East,90,0.0,0.0,96,0.00,,,0.00,,2013-02-18 11:00:00,
2013-02-18 03:10:00,45.6,45.0,29.98,East,90,5.0,6.0,96,0.00,,,0.00,,2013-02-18 11:10:00,
2013-02-18 03:20:00,45.5,44.0,29.98,East,90,2.0,6.0,96,0.00,,,0.00,,2013-02-18 11:20:00,
2013-02-18 03:30:00,45.5,44.0,29.98,East,90,5.0,6.0,96,0.00,,,0.00,,2013-02-18 11:30:00,
2013-02-18 03:40:00,45.4,44.0,29.97,East,90,2.0,6.0,96,0.00,,,0.00,,2013-02-18 11:40:00,
2013-02-18 03:50:00,45.2,44.0,29.97,East,90,2.0,6.0,96,0.00,,,0.00,,2013-02-18 11:50:00,
2013-02-18 04:00:00,45.1,44.0,29.97,East,90,1.0,3.0,96,0.00,,,0.00,,2013-02-18 12:00:00,
2013-02-18 04:10:00,45.0,44.0,29.97,East,90,1.0,5.0,96,0.00,,,0.00,,2013-02-18 12:10:00,
2013-02-18 04:21:00,45.1,44.0,29.97,East,90,0.0,2.0,96,0.00,,,0.00,,2013-02-18 12:21:00,
2013-02-18 04:31:00,45.2,44.0,29.97,East,90,1.0,2.0,96,0.00,,,0.00,,2013-02-18 12:31:00,
2013-02-18 04:40:00,45.2,44.0,29.98,East,90,0.0,2.0,97,0.00,,,0.00,,2013-02-18 12:40:00,
2013-02-18 04:50:00,45.2,44.0,29.98,East,90,1.0,2.0,97,0.00,,,0.00,,2013-02-18 12:50:00,
2013-02-18 05:00:00,45.4,45.0,29.99,East,90,2.0,3.0,97,0.00,,,0.00,,2013-02-18 13:00:00,
2013-02-18 05:12:00,45.4,44.0,29.99,East,90,2.0,3.0,96,0.00,,,0.00,,2013-02-18 13:12:00,
2013-02-18 05:22:00,45.4,44.0,29.99,East,90,3.0,3.0,96,0.00,,,0.00,,2013-02-18 13:22:00,
2013-02-18 05:30:00,45.4,44.0,29.99,East,90,2.0,3.0,96,0.00,,,0.00,,2013-02-18 13:30:00,
2013-02-18 05:40:00,45.3,44.0,29.99,East,90,2.0,2.0,96,0.00,,,0.00,,2013-02-18 13:40:00,
2013-02-18 05:50:00,45.3,44.0,29.99,East,90,2.0,5.0,96,0.00,,,0.00,,2013-02-18 13:50:00,
2013-02-18 06:00:00,45.3,44.0,29.99,East,90,3.0,3.0,96,0.00,,,0.00,,2013-02-18 14:00:00,
2013-02-18 06:10:00,45.3,44.0,29.99,East,90,2.0,5.0,96,0.00,,,0.00,,2013-02-18 14:10:00,
2013-02-18 06:20:00,45.3,44.0,30.00,East,90,5.0,5.0,96,0.00,,,0.00,,2013-02-18 14:20:00,
2013-02-18 06:30:00,45.3,44.0,30.00,East,101,3.0,6.0,96,0.00,,,0.00,,2013-02-18 14:30:00,
2013-02-18 06:40:00,45.4,44.0,30.00,East,101,1.0,3.0,96,0.00,,,0.00,,2013-02-18 14:40:00,
2013-02-18 06:50:00,45.4,44.0,30.01,East,101,1.0,1.0,96,0.00,,,0.00,,2013-02-18 14:50:00,
2013-02-18 07:00:00,45.5,44.0,30.01,East,101,0.0,2.0,96,0.00,,,0.00,,2013-02-18 15:00:00,
2013-02-18 07:10:00,45.5,44.0,30.01,East,101,0.0,0.0,96,0.00,,,0.00,,2013-02-18 15:10:00,
2013-02-18 07:20:00,45.6,45.0,30.02,East,101,0.0,1.0,96,0.00,,,0.00,,2013-02-18 15:20:00,
2013-02-18 07:31:00,45.6,45.0,30.02,East,101,0.0,1.0,96,0.00,,,0.00,,2013-02-18 15:31:00,
2013-02-18 07:41:00,45.5,44.0,30.02,East,100,0.0,3.0,96,0.00,,,0.00,,2013-02-18 15:41:00,
2013-02-18 07:50:00,45.4,44.0,30.02,East,100,3.0,5.0,96,0.00,,,0.00,,2013-02-18 15:50:00,
2013-02-18 08:00:00,45.3,44.0,30.02,East,100,0.0,3.0,96,0.00,,,0.00,,2013-02-18 16:00:00,
2013-02-18 08:11:00,45.4,44.0,30.02,East,100,2.0,3.0,96,0.00,,,0.00,,2013-02-18 16:11:00,
2013-02-18 08:20:00,45.6,45.0,30.02,East,100,0.0,3.0,96,0.00,,,0.00,,2013-02-18 16:20:00,
2013-02-18 08:31:00,45.7,45.0,30.02,East,100,1.0,2.0,96,0.00,,,0.00,,2013-02-18 16:31:00,
2013-02-18 08:40:00,45.8,45.0,30.02,East,100,0.0,2.0,96,0.00,,,0.00,,2013-02-18 16:40:00,
2013-02-18 08:50:00,46.0,45.0,30.03,East,100,0.0,1.0,96,0.00,,,0.00,,2013-02-18 16:50:00,
2013-02-18 09:00:00,46.1,45.0,30.02,East,100,0.0,2.0,96,0.00,,,0.00,,2013-02-18 17:00:00,
2013-02-18 09:10:00,46.4,45.0,30.03,East,100,1.0,2.0,96,0.00,,,0.00,,2013-02-18 17:10:00,
2013-02-18 09:20:00,46.4,45.0,30.03,East,100,1.0,3.0,96,0.00,,,0.00,,2013-02-18 17:20:00,
2013-02-18 09:30:00,46.5,45.0,30.03,East,100,1.0,2.0,96,0.00,,,0.00,,2013-02-18 17:30:00,
2013-02-18 09:40:00,46.7,46.0,30.03,East,100,2.0,5.0,96,0.00,,,0.00,,2013-02-18 17:40:00,
2013-02-18 09:50:00,46.8,46.0,30.03,East,100,1.0,5.0,96,0.00,,,0.00,,2013-02-18 17:50:00,
2013-02-18 10:00:00,46.9,46.0,30.02,East,100,6.0,6.0,96,0.00,,,0.00,,2013-02-18 18:00:00,
2013-02-18 10:10:00,47.2,46.0,30.03,East,100,3.0,5.0,96,0.00,,,0.00,,2013-02-18 18:10:00,
2013-02-18 10:20:00,47.2,46.0,30.03,East,100,5.0,7.0,96,0.00,,,0.00,,2013-02-18 18:20:00,
2013-02-18 10:31:00,47.4,46.0,30.03,East,100,3.0,7.0,95,0.00,,,0.00,,2013-02-18 18:31:00,
2013-02-18 10:40:00,47.7,46.0,30.03,ESE,105,5.0,8.0,95,0.00,,,0.00,,2013-02-18 18:40:00,
2013-02-18 10:51:00,47.8,46.0,30.04,ESE,123,4.0,8.0,95,0.00,,,0.00,,2013-02-18 18:51:00,
2013-02-18 11:00:00,47.8,47.0,30.03,SE,124,6.0,8.0,96,0.00,,,0.00,,2013-02-18 19:00:00,
2013-02-18 11:11:00,47.6,46.0,30.03,SE,125,3.0,5.0,95,0.00,,,0.00,,2013-02-18 19:11:00,
2013-02-18 11:21:00,47.8,47.0,30.03,SE,125,0.0,5.0,96,0.00,,,0.00,,2013-02-18 19:21:00,
2013-02-18 11:30:00,47.7,46.0,30.03,SE,125,2.0,3.0,95,0.00,,,0.00,,2013-02-18 19:30:00,
2013-02-18 11:40:00,48.0,47.0,30.03,SE,125,0.0,1.0,96,0.00,,,0.00,,2013-02-18 19:40:00,
2013-02-18 11:50:00,47.7,46.0,30.03,South,171,1.0,1.0,95,0.00,,,0.00,,2013-02-18 19:50:00,
2013-02-18 12:00:00,47.7,46.0,30.03,South,179,2.0,3.0,95,0.00,,,0.00,,2013-02-18 20:00:00,
2013-02-18 12:10:00,47.7,47.0,30.02,South,179,0.0,2.0,96,0.00,,,0.00,,2013-02-18 20:10:00,
2013-02-18 12:20:00,47.7,47.0,30.02,South,179,4.0,4.0,96,0.00,,,0.00,,2013-02-18 20:20:00,
2013-02-18 12:31:00,47.7,47.0,30.02,South,180,0.0,3.0,96,0.00,,,0.00,,2013-02-18 20:31:00,
2013-02-18 12:40:00,47.6,47.0,30.01,South,179,1.0,3.0,96,0.00,,,0.00,,2013-02-18 20:40:00,
2013-02-18 12:50:00,47.9,47.0,30.01,South,179,3.0,3.0,96,0.00,,,0.00,,2013-02-18 20:50:00,
2013-02-18 13:02:00,48.5,47.0,30.01,South,180,1.0,4.0,96,0.00,,,0.00,,2013-02-18 21:02:00,
2013-02-18 13:10:00,48.5,47.0,30.01,SSW,208,3.0,7.0,96,0.00,,,0.00,,2013-02-18 21:10:00,
2013-02-18 13:20:00,48.7,48.0,30.00,SSW,209,5.0,5.0,96,0.00,,,0.00,,2013-02-18 21:20:00,
2013-02-18 13:30:00,48.6,48.0,30.00,SSW,213,6.0,7.0,96,0.00,,,0.00,,2013-02-18 21:30:00,
2013-02-18 13:40:00,48.7,48.0,30.00,SW,217,6.0,7.0,96,0.00,,,0.00,,2013-02-18 21:40:00,
2013-02-18 13:50:00,48.7,48.0,29.99,SW,219,4.0,8.0,96,0.00,,,0.00,,2013-02-18 21:50:00,
2013-02-18 14:00:00,48.6,48.0,29.99,SW,221,3.0,7.0,96,0.00,,,0.00,,2013-02-18 22:00:00,
2013-02-18 14:11:00,48.4,47.0,29.99,SW,219,3.0,8.0,96,0.00,,,0.00,,2013-02-18 22:11:00,
2013-02-18 14:21:00,47.9,47.0,29.99,WSW,256,6.0,8.0,96,0.00,,,0.00,,2013-02-18 22:21:00,
2013-02-18 14:30:00,47.5,46.0,29.98,WSW,255,6.0,9.0,96,0.00,,,0.00,,2013-02-18 22:30:00,
2013-02-18 14:41:00,47.4,46.0,29.98,West,266,8.0,9.0,95,0.00,,,0.00,,2013-02-18 22:41:00,
2013-02-18 14:50:00,47.8,47.0,29.98,West,269,7.0,9.0,96,0.00,,,0.00,,2013-02-18 22:50:00,
2013-02-18 15:00:00,47.7,46.0,29.98,West,279,6.0,9.0,95,0.00,,,0.00,,2013-02-18 23:00:00,
2013-02-18 15:10:00,47.9,47.0,29.97,West,275,10.0,13.0,95,0.00,,,0.00,,2013-02-18 23:10:00,
2013-02-18 15:20:00,47.8,46.0,29.97,WNW,284,14.0,18.0,94,0.00,,,0.00,,2013-02-18 23:20:00,
2013-02-18 15:30:00,47.8,46.0,29.96,West,277,17.0,20.0,93,0.00,,,0.00,,2013-02-18 23:30:00,
2013-02-18 15:40:00,47.6,45.0,29.96,West,277,16.0,20.0,91,0.00,,,0.00,,2013-02-18 23:40:00,
2013-02-18 15:50:00,47.7,45.0,29.96,West,277,18.0,19.0,90,0.00,,,0.00,,2013-02-18 23:50:00,
2013-02-18 16:00:00,47.8,45.0,29.96,West,274,17.0,18.0,90,0.00,,,0.00,,2013-02-19 00:00:00,
2013-02-18 16:10:00,47.8,45.0,29.96,West,269,17.0,20.0,89,0.00,,,0.00,,2013-02-19 00:10:00,
2013-02-18 16:20:00,47.8,44.0,29.95,WNW,284,17.0,21.0,88,0.00,,,0.00,,2013-02-19 00:20:00,
2013-02-18 16:30:00,47.8,44.0,29.95,WNW,302,17.0,21.0,87,0.00,,,0.00,,2013-02-19 00:30:00,
2013-02-18 16:40:00,47.8,44.0,29.95,WNW,290,14.0,18.0,87,0.00,,,0.00,,2013-02-19 00:40:00,
2013-02-18 16:50:00,47.8,44.0,29.95,WNW,294,10.0,17.0,88,0.00,,,0.00,,2013-02-19 00:50:00,
2013-02-18 17:00:00,47.7,45.0,29.95,WNW,290,12.0,18.0,89,0.00,,,0.00,,2013-02-19 01:00:00,
2013-02-18 17:10:00,47.5,44.0,29.95,WNW,285,16.0,19.0,88,0.00,,,0.00,,2013-02-19 01:10:00,
2013-02-18 17:21:00,47.2,44.0,29.95,WNW,291,17.0,23.0,88,0.00,,,0.00,,2013-02-19 01:21:00,
2013-02-18 17:30:00,47.1,43.0,29.95,West,272,18.0,22.0,87,0.00,,,0.00,,2013-02-19 01:30:00,
2013-02-18 17:40:00,47.0,43.0,29.95,WNW,283,20.0,22.0,87,0.00,,,0.00,,2013-02-19 01:40:00,
2013-02-18 17:50:00,46.9,43.0,29.95,WNW,290,20.0,21.0,87,0.00,,,0.00,,2013-02-19 01:50:00,
2013-02-18 18:00:00,46.8,43.0,29.95,WNW,292,18.0,22.0,87,0.00,,,0.00,,2013-02-19 02:00:00,
2013-02-18 18:10:00,46.8,43.0,29.95,WNW,298,16.0,24.0,86,0.00,,,0.00,,2013-02-19 02:10:00,
2013-02-18 18:20:00,46.7,43.0,29.95,WNW,290,12.0,20.0,87,0.00,,,0.00,,2013-02-19 02:20:00,
2013-02-18 18:30:00,46.4,43.0,29.95,WNW,297,13.0,17.0,87,0.00,,,0.00,,2013-02-19 02:30:00,
2013-02-18 18:40:00,46.4,43.0,29.95,WNW,297,16.0,19.0,87,0.00,,,0.00,,2013-02-19 02:40:00,
2013-02-18 18:50:00,46.3,43.0,29.95,WNW,302,14.0,17.0,87,0.00,,,0.00,,2013-02-19 02:50:00,
2013-02-18 19:00:00,46.3,43.0,29.95,WNW,293,12.0,18.0,87,0.00,,,0.00,,2013-02-19 03:00:00,
2013-02-18 19:10:00,46.3,43.0,29.96,WNW,290,12.0,19.0,87,0.00,,,0.00,,2013-02-19 03:10:00,
2013-02-18 19:20:00,46.5,43.0,29.96,WNW,287,10.0,16.0,88,0.00,,,0.00,,2013-02-19 03:20:00,
2013-02-18 19:30:00,46.5,43.0,29.96,WNW,292,12.0,17.0,88,0.00,,,0.00,,2013-02-19 03:30:00,
2013-02-18 19:40:00,46.6,43.0,29.97,WNW,285,10.0,17.0,87,0.00,,,0.00,,2013-02-19 03:40:00,
2013-02-18 19:50:00,46.7,43.0,29.97,WNW,291,10.0,16.0,87,0.00,,,0.00,,2013-02-19 03:50:00,
2013-02-18 20:01:00,46.7,43.0,29.97,WNW,303,7.0,11.0,87,0.00,,,0.00,,2013-02-19 04:01:00,
2013-02-18 20:10:00,46.6,43.0,29.97,NW,320,5.0,10.0,86,0.00,,,0.00,,2013-02-19 04:10:00,
2013-02-18 20:20:00,46.5,43.0,29.97,NW,306,7.0,8.0,86,0.00,,,0.00,,2013-02-19 04:20:00,
2013-02-18 20:30:00,46.5,43.0,29.97,WNW,290,11.0,11.0,86,0.00,,,0.00,,2013-02-19 04:30:00,
2013-02-18 20:40:00,46.7,42.0,29.97,WNW,292,9.0,14.0,85,0.00,,,0.00,,2013-02-19 04:40:00,
2013-02-18 20:50:00,46.8,43.0,29.97,WNW,286,9.0,19.0,86,0.00,,,0.00,,2013-02-19 04:50:00,
2013-02-18 21:00:00,46.6,43.0,29.97,NW,305,12.0,14.0,86,0.00,,,0.00,,2013-02-19 05:00:00,
2013-02-18 21:10:00,46.5,43.0,29.97,WNW,287,9.0,14.0,86,0.00,,,0.00,,2013-02-19 05:10:00,
2013-02-18 21:20:00,46.5,42.0,29.97,WNW,291,10.0,12.0,85,0.00,,,0.00,,2013-02-19 05:20:00,
2013-02-18 21:30:00,46.7,42.0,29.97,NW,306,13.0,14.0,85,0.00,,,0.00,,2013-02-19 05:30:00,
2013-02-18 21:40:00,46.7,42.0,29.97,WNW,282,8.0,15.0,85,0.00,,,0.00,,2013-02-19 05:40:00,
2013-02-18 21:50:00,46.8,42.0,29.97,NW,311,12.0,14.0,84,0.00,,,0.00,,2013-02-19 05:50:00,
2013-02-18 22:00:00,46.8,42.0,29.97,WNW,302,10.0,15.0,83,0.00,,,0.00,,2013-02-19 06:00:00,
2013-02-18 22:10:00,46.8,42.0,29.96,NW,306,9.0,15.0,83,0.00,,,0.00,,2013-02-19 06:10:00,
2013-02-18 22:20:00,46.8,42.0,29.96,WNW,284,7.0,13.0,83,0.00,,,0.00,,2013-02-19 06:20:00,
2013-02-18 22:30:00,46.8,42.0,29.96,WNW,288,7.0,11.0,83,0.00,,,0.00,,2013-02-19 06:30:00,
2013-02-18 22:40:00,46.8,42.0,29.96,WNW,283,8.0,12.0,83,0.00,,,0.00,,2013-02-19 06:40:00,
2013-02-18 22:50:00,46.9,42.0,29.95,WNW,294,5.0,12.0,82,0.00,,,0.00,,2013-02-19 06:50:00,
2013-02-18 23:00:00,46.8,42.0,29.95,WNW,290,8.0,10.0,82,0.00,,,0.00,,2013-02-19 07:00:00,
2013-02-18 23:10:00,46.8,42.0,29.95,West,275,9.0,12.0,83,0.00,,,0.00,,2013-02-19 07:10:00,
2013-02-18 23:20:00,46.8,42.0,29.95,WNW,287,9.0,12.0,83,0.00,,,0.00,,2013-02-19 07:20:00,
2013-02-18 23:30:00,46.7,42.0,29.95,West,279,7.0,9.0,83,0.00,,,0.00,,2013-02-19 07:30:00,
2013-02-18 23:40:00,46.6,42.0,29.96,West,277,8.0,10.0,83,0.00,,,0.00,,2013-02-19 07:40:00,
2013-02-18 23:50:00,46.7,42.0,29.95,WNW,286,8.0,11.0,82,0.00,,,0.00,,2013-02-19 07:50:00,